TVS481P BIKF-CYVR

Flight info

Callsign TVS481P
Flight time 7h 3m
Altitude 38000
Route SORIR DCT SUKED DCT 66N030W 68N040W 69N050W 70N060W DCT ADSAM DCT 70N070W 69N080W 67N090W 64N100W DCT IKLIX DCT PIBLI DCT YZU DCT BOOTH CANUC5
Aircraft B738/M-SDE2E3FGHIRWXY/LB1

Departure

Time 2026-05-06 14:16
Airport Keflavik International Airport (BIKF)

Arrival

Time 2026-05-06 21:20
Airport Vancouver International Airport (CYVR)
Time Latitude Longitude Altitude Speed Heading
2026-05-06 13:53 63.99543 -22.62473 139 ft 0 kts 89°
2026-05-06 14:03 63.99543 -22.62500 139 ft 4 kts 89°
2026-05-06 14:03 63.99543 -22.62561 139 ft 4 kts 89°
2026-05-06 14:03 63.99542 -22.62623 139 ft 4 kts 89°
2026-05-06 14:03 63.99542 -22.62684 139 ft 4 kts 89°
2026-05-06 14:04 63.99541 -22.62685 139 ft 4 kts 97°
2026-05-06 14:04 63.99524 -22.62655 139 ft 4 kts 161°
2026-05-06 14:04 63.99500 -22.62653 139 ft 4 kts 180°
2026-05-06 14:04 63.99478 -22.62653 139 ft 2 kts 180°
2026-05-06 14:05 63.99452 -22.62654 139 ft 4 kts 192°
2026-05-06 14:05 63.99433 -22.62673 139 ft 4 kts 202°
2026-05-06 14:05 63.99423 -22.62683 139 ft 0 kts 204°
2026-05-06 14:07 63.99419 -22.62687 139 ft 2 kts 204°
2026-05-06 14:07 63.99397 -22.62710 139 ft 5 kts 204°
2026-05-06 14:07 63.99352 -22.62744 128 ft 8 kts 185°
2026-05-06 14:08 63.99297 -22.62746 139 ft 8 kts 180°
2026-05-06 14:08 63.99246 -22.62699 139 ft 9 kts 137°
2026-05-06 14:08 63.99186 -22.62676 139 ft 10 kts 183°
2026-05-06 14:08 63.99117 -22.62717 139 ft 12 kts 197°
2026-05-06 14:09 63.99031 -22.62777 137 ft 14 kts 197°
2026-05-06 14:09 63.98928 -22.62848 136 ft 16 kts 197°
2026-05-06 14:09 63.98855 -22.62794 136 ft 12 kts 108°
2026-05-06 14:09 63.98854 -22.62607 139 ft 12 kts 90°
2026-05-06 14:10 63.98854 -22.62425 143 ft 12 kts 90°
2026-05-06 14:10 63.98854 -22.62226 145 ft 13 kts 90°
2026-05-06 14:10 63.98854 -22.62004 148 ft 15 kts 90°
2026-05-06 14:10 63.98854 -22.61755 150 ft 16 kts 90°
2026-05-06 14:11 63.98854 -22.61501 152 ft 16 kts 90°
2026-05-06 14:11 63.98854 -22.61257 157 ft 15 kts 90°
2026-05-06 14:11 63.98804 -22.61125 159 ft 13 kts 179°
2026-05-06 14:11 63.98709 -22.61126 158 ft 15 kts 180°
2026-05-06 14:12 63.98590 -22.61126 160 ft 19 kts 180°
2026-05-06 14:12 63.98445 -22.61126 159 ft 22 kts 180°
2026-05-06 14:12 63.98289 -22.61127 160 ft 22 kts 180°
2026-05-06 14:12 63.98162 -22.61110 158 ft 13 kts 150°
2026-05-06 14:13 63.98118 -22.60951 166 ft 12 kts 151°
2026-05-06 14:13 63.98035 -22.60941 167 ft 12 kts 180°
2026-05-06 14:13 63.97937 -22.60941 168 ft 16 kts 180°
2026-05-06 14:13 63.97807 -22.60941 169 ft 21 kts 180°
2026-05-06 14:14 63.97654 -22.60941 167 ft 22 kts 180°
2026-05-06 14:14 63.97502 -22.60941 165 ft 17 kts 180°
2026-05-06 14:14 63.97463 -22.60909 165 ft 6 kts 137°
2026-05-06 14:14 63.97447 -22.60826 166 ft 6 kts 106°
2026-05-06 14:15 63.97437 -22.60739 168 ft 6 kts 102°
2026-05-06 14:15 63.97440 -22.60651 170 ft 6 kts 71°
2026-05-06 14:15 63.97468 -22.60573 171 ft 9 kts 36°
2026-05-06 14:15 63.97560 -22.60541 173 ft 18 kts
2026-05-06 14:16 63.97902 -22.60540 170 ft 86 kts 360°
2026-05-06 14:16 63.98724 -22.60546 197 ft 146 kts
2026-05-06 14:16 63.99767 -22.60538 929 ft 150 kts
2026-05-06 14:16 64.00790 -22.60527 1969 ft 143 kts
2026-05-06 14:17 64.01839 -22.60499 2560 ft 159 kts
2026-05-06 14:17 64.02986 -22.60450 3125 ft 177 kts
2026-05-06 14:17 64.04241 -22.60582 3757 ft 186 kts 349°
2026-05-06 14:17 64.05443 -22.61940 4409 ft 199 kts 330°
2026-05-06 14:18 64.06483 -22.64155 5051 ft 211 kts 311°
2026-05-06 14:18 64.07181 -22.67148 5743 ft 218 kts 293°
2026-05-06 14:18 64.07652 -22.70604 6038 ft 240 kts 291°
2026-05-06 14:18 64.08133 -22.74396 6416 ft 259 kts 290°
2026-05-06 14:19 64.08644 -22.78512 6829 ft 276 kts 290°
2026-05-06 14:19 64.09163 -22.82733 7618 ft 278 kts 289°
2026-05-06 14:19 64.09706 -22.87131 8096 ft 293 kts 289°
2026-05-06 14:19 64.10265 -22.91675 8752 ft 300 kts 289°
2026-05-06 14:20 64.10838 -22.96303 9470 ft 305 kts 289°
2026-05-06 14:20 64.11422 -23.01020 10131 ft 312 kts 289°
2026-05-06 14:20 64.12012 -23.05795 10925 ft 312 kts 289°
2026-05-06 14:20 64.12609 -23.10620 11566 ft 318 kts 289°
2026-05-06 14:21 64.13226 -23.15620 11895 ft 337 kts 289°
2026-05-06 14:21 64.13882 -23.20943 12060 ft 357 kts 289°
2026-05-06 14:21 64.14571 -23.26566 12232 ft 376 kts 288°
2026-05-06 14:21 64.15287 -23.32464 12539 ft 390 kts 288°
2026-05-06 14:22 64.16007 -23.38426 13081 ft 396 kts 289°
2026-05-06 14:22 64.16744 -23.44529 13762 ft 399 kts 288°
2026-05-06 14:22 64.17485 -23.50689 14368 ft 403 kts 288°
2026-05-06 14:22 64.18254 -23.56894 15013 ft 405 kts 291°
2026-05-06 14:23 64.19280 -23.62920 15610 ft 407 kts 297°
2026-05-06 14:23 64.20481 -23.68840 16188 ft 411 kts 298°
2026-05-06 14:23 64.21741 -23.74767 16718 ft 416 kts 299°
2026-05-06 14:23 64.23018 -23.80794 17247 ft 421 kts 298°
2026-05-06 14:24 64.24285 -23.86896 17853 ft 424 kts 298°
2026-05-06 14:24 64.25544 -23.93071 18437 ft 428 kts 298°
2026-05-06 14:24 64.26794 -23.99296 18954 ft 431 kts 298°
2026-05-06 14:24 64.28047 -24.05611 19441 ft 434 kts 297°
2026-05-06 14:25 64.29301 -24.11975 19919 ft 437 kts 297°
2026-05-06 14:25 64.30559 -24.18388 20384 ft 441 kts 297°
2026-05-06 14:25 64.31824 -24.24853 20863 ft 444 kts 297°
2026-05-06 14:25 64.33080 -24.31295 21306 ft 447 kts 297°
2026-05-06 14:26 64.34360 -24.37872 21762 ft 450 kts 297°
2026-05-06 14:26 64.35645 -24.44496 22197 ft 453 kts 297°
2026-05-06 14:26 64.36937 -24.51177 22622 ft 456 kts 297°
2026-05-06 14:26 64.38218 -24.57816 23036 ft 459 kts 297°
2026-05-06 14:27 64.39520 -24.64587 23418 ft 462 kts 297°
2026-05-06 14:27 64.40911 -24.71280 23798 ft 462 kts 304°
2026-05-06 14:27 64.42722 -24.77426 24149 ft 462 kts 309°
2026-05-06 14:27 64.44661 -24.83377 24493 ft 463 kts 310°
2026-05-06 14:28 64.46631 -24.89310 24821 ft 465 kts 310°
2026-05-06 14:28 64.48605 -24.95299 25148 ft 467 kts 310°
2026-05-06 14:28 64.50568 -25.01346 25466 ft 469 kts 309°
2026-05-06 14:28 64.52517 -25.07447 25768 ft 471 kts 309°
2026-05-06 14:29 64.54457 -25.13592 26057 ft 473 kts 309°
2026-05-06 14:29 64.56398 -25.19788 26431 ft 473 kts 308°
2026-05-06 14:29 64.58326 -25.25978 26851 ft 471 kts 308°
2026-05-06 14:29 64.60243 -25.32153 27314 ft 469 kts 308°
2026-05-06 14:30 64.62147 -25.38302 27751 ft 467 kts 308°
2026-05-06 14:30 64.64022 -25.44372 28148 ft 467 kts 308°
2026-05-06 14:30 64.65918 -25.50520 28560 ft 466 kts 308°
2026-05-06 14:30 64.67812 -25.56675 29011 ft 464 kts 308°
2026-05-06 14:31 64.69696 -25.62811 29458 ft 463 kts 308°
2026-05-06 14:31 64.70934 -25.66850 29748 ft 462 kts 308°
2026-05-06 14:31 64.73409 -25.74955 30306 ft 461 kts 308°
2026-05-06 14:31 64.75269 -25.81065 30659 ft 460 kts 308°
2026-05-06 14:32 64.77121 -25.87170 30975 ft 459 kts 308°
2026-05-06 14:32 64.78968 -25.93271 31288 ft 459 kts 308°
2026-05-06 14:32 64.80192 -25.97324 31487 ft 459 kts 308°
2026-05-06 14:32 64.82034 -26.03434 31782 ft 458 kts 308°
2026-05-06 14:33 64.83871 -26.09548 32059 ft 458 kts 308°
2026-05-06 14:33 64.85707 -26.15673 32347 ft 458 kts 308°
2026-05-06 14:33 64.88157 -26.23873 32730 ft 457 kts 308°
2026-05-06 14:33 64.89366 -26.27932 32937 ft 457 kts 308°
2026-05-06 14:34 64.91189 -26.34065 33237 ft 457 kts 308°
2026-05-06 14:34 64.93012 -26.40215 33521 ft 456 kts 307°
2026-05-06 14:34 64.94826 -26.46351 33808 ft 456 kts 308°
2026-05-06 14:34 64.96636 -26.52482 34100 ft 455 kts 307°
2026-05-06 14:35 64.98446 -26.58634 34358 ft 455 kts 308°
2026-05-06 14:35 65.00260 -26.64770 34590 ft 455 kts 309°
2026-05-06 14:35 65.02135 -26.70799 34812 ft 454 kts 310°
2026-05-06 14:35 65.04041 -26.76744 35039 ft 453 kts 310°
2026-05-06 14:36 65.05958 -26.82678 35244 ft 453 kts 310°
2026-05-06 14:36 65.07853 -26.88552 35451 ft 453 kts 310°
2026-05-06 14:36 65.09760 -26.94506 35652 ft 454 kts 310°
2026-05-06 14:36 65.11665 -27.00494 35877 ft 453 kts 309°
2026-05-06 14:37 65.13553 -27.06471 36105 ft 452 kts 309°
2026-05-06 14:37 65.15439 -27.12473 36291 ft 452 kts 309°
2026-05-06 14:37 65.19168 -27.24404 36411 ft 446 kts 309°
2026-05-06 14:38 65.22857 -27.36264 36434 ft 447 kts 309°
2026-05-06 14:38 65.26572 -27.48264 36436 ft 452 kts 309°
2026-05-06 14:39 65.30312 -27.60421 36446 ft 456 kts 309°
2026-05-06 14:39 65.34046 -27.72632 36450 ft 458 kts 309°
2026-05-06 14:40 65.37808 -27.84995 36445 ft 459 kts 308°
2026-05-06 14:40 65.41567 -27.97411 36451 ft 459 kts 308°
2026-05-06 14:41 65.45289 -28.09779 36454 ft 458 kts 308°
2026-05-06 14:41 65.49017 -28.22245 36458 ft 457 kts 308°
2026-05-06 14:42 65.52723 -28.34694 36459 ft 457 kts 308°
2026-05-06 14:42 65.56415 -28.47172 36467 ft 456 kts 308°
2026-05-06 14:43 65.60094 -28.59669 36472 ft 456 kts 307°
2026-05-06 14:43 65.63732 -28.72098 36471 ft 455 kts 307°
2026-05-06 14:44 65.67383 -28.84651 36473 ft 455 kts 307°
2026-05-06 14:45 65.72837 -29.03522 36480 ft 454 kts 307°
2026-05-06 14:45 65.76454 -29.16130 36478 ft 454 kts 307°
2026-05-06 14:46 65.80036 -29.28683 36483 ft 453 kts 307°
2026-05-06 14:46 65.83627 -29.41347 36482 ft 453 kts 307°
2026-05-06 14:47 65.87207 -29.54038 36485 ft 453 kts 307°
2026-05-06 14:47 65.90755 -29.66689 36484 ft 453 kts 307°
2026-05-06 14:48 65.94311 -29.79442 36482 ft 453 kts 307°
2026-05-06 14:48 65.97857 -29.92226 36488 ft 453 kts 307°
2026-05-06 14:49 66.01363 -30.05112 36489 ft 453 kts 305°
2026-05-06 14:49 66.04666 -30.18328 36490 ft 453 kts 304°
2026-05-06 14:50 66.07892 -30.31559 36493 ft 453 kts 304°
2026-05-06 14:50 66.11140 -30.44864 36492 ft 453 kts 304°
2026-05-06 14:51 66.14396 -30.58184 36494 ft 453 kts 304°
2026-05-06 14:51 66.17641 -30.71518 36492 ft 452 kts 304°
2026-05-06 14:52 66.20882 -30.84907 36492 ft 452 kts 304°
2026-05-06 14:52 66.24083 -30.98217 36494 ft 452 kts 303°
2026-05-06 14:53 66.27290 -31.11641 36488 ft 452 kts 303°
2026-05-06 14:53 66.30486 -31.25092 36490 ft 452 kts 303°
2026-05-06 14:54 66.33670 -31.38581 36492 ft 452 kts 303°
2026-05-06 14:54 66.36843 -31.52110 36493 ft 451 kts 303°
2026-05-06 14:55 66.39998 -31.65647 36491 ft 451 kts 303°
2026-05-06 14:55 66.43141 -31.79208 36490 ft 451 kts 303°
2026-05-06 14:56 66.46248 -31.92701 36485 ft 450 kts 303°
2026-05-06 14:56 66.49365 -32.06328 36484 ft 450 kts 303°
2026-05-06 14:57 66.52465 -32.19964 36481 ft 450 kts 303°
2026-05-06 14:57 66.55560 -32.33660 36485 ft 450 kts 303°
2026-05-06 14:58 66.58616 -32.47276 36484 ft 449 kts 303°
2026-05-06 14:58 66.61678 -32.61006 36484 ft 449 kts 303°
2026-05-06 14:59 66.64723 -32.74740 36482 ft 449 kts 303°
2026-05-06 14:59 66.67755 -32.88511 36480 ft 449 kts 303°
2026-05-06 15:00 66.70774 -33.02303 36482 ft 448 kts 302°
2026-05-06 15:00 66.73778 -33.16125 36478 ft 448 kts 302°
2026-05-06 15:01 66.76749 -33.29878 36478 ft 448 kts 302°
2026-05-06 15:01 66.79729 -33.43762 36478 ft 447 kts 302°
2026-05-06 15:02 66.82689 -33.57645 36478 ft 447 kts 302°
2026-05-06 15:02 66.85635 -33.71545 36478 ft 447 kts 302°
2026-05-06 15:03 66.88568 -33.85486 36479 ft 446 kts 302°
2026-05-06 15:03 66.91485 -33.99432 36479 ft 446 kts 302°
2026-05-06 15:04 66.94374 -34.13353 36472 ft 446 kts 302°
2026-05-06 15:04 66.97264 -34.27358 36473 ft 446 kts 302°
2026-05-06 15:05 67.00145 -34.41412 36469 ft 446 kts 302°
2026-05-06 15:05 67.03016 -34.55507 36483 ft 446 kts 301°
2026-05-06 15:06 67.05851 -34.69525 36481 ft 445 kts 301°
2026-05-06 15:06 67.08689 -34.83658 36479 ft 445 kts 301°
2026-05-06 15:07 67.11516 -34.97829 36486 ft 446 kts 301°
2026-05-06 15:07 67.14332 -35.12034 36475 ft 446 kts 301°
2026-05-06 15:08 67.17131 -35.26259 36466 ft 445 kts 301°
2026-05-06 15:08 67.19917 -35.40507 36461 ft 445 kts 301°
2026-05-06 15:09 67.22670 -35.54685 36456 ft 445 kts 301°
2026-05-06 15:09 67.25446 -35.69081 36449 ft 444 kts 301°
2026-05-06 15:10 67.28168 -35.83300 36449 ft 444 kts 301°
2026-05-06 15:10 67.30896 -35.97646 36444 ft 444 kts 301°
2026-05-06 15:11 67.33606 -36.12000 36444 ft 444 kts 300°
2026-05-06 15:11 67.36305 -36.26396 36427 ft 444 kts 300°
2026-05-06 15:12 67.39001 -36.40863 36429 ft 444 kts 300°
2026-05-06 15:12 67.41673 -36.55319 36433 ft 444 kts 300°
2026-05-06 15:13 67.44337 -36.69828 36432 ft 444 kts 300°
2026-05-06 15:13 67.46985 -36.84358 36441 ft 444 kts 300°
2026-05-06 15:14 67.49604 -36.98827 36452 ft 444 kts 300°
2026-05-06 15:14 67.52226 -37.13426 36460 ft 444 kts 300°
2026-05-06 15:15 67.54833 -37.28038 36475 ft 444 kts 300°
2026-05-06 15:15 67.57428 -37.42676 36486 ft 443 kts 300°
2026-05-06 15:16 67.60013 -37.57383 36502 ft 443 kts 299°
2026-05-06 15:16 67.62578 -37.72083 36511 ft 443 kts 299°
2026-05-06 15:17 67.65132 -37.86825 36532 ft 443 kts 299°
2026-05-06 15:17 67.67673 -38.01599 36534 ft 443 kts 299°
2026-05-06 15:18 67.70176 -38.16272 36546 ft 442 kts 299°
2026-05-06 15:18 67.72680 -38.31047 36557 ft 441 kts 299°
2026-05-06 15:19 67.75172 -38.45867 36560 ft 441 kts 299°
2026-05-06 15:19 67.77647 -38.60690 36560 ft 440 kts 299°
2026-05-06 15:20 67.79689 -38.73020 36565 ft 440 kts 298°
2026-05-06 15:20 67.82131 -38.87857 36562 ft 439 kts 298°
2026-05-06 15:21 67.84558 -39.02716 36561 ft 439 kts 298°
2026-05-06 15:21 67.86969 -39.17582 36560 ft 438 kts 298°
2026-05-06 15:22 67.89350 -39.32376 36561 ft 438 kts 298°
2026-05-06 15:22 67.91728 -39.47274 36553 ft 437 kts 298°
2026-05-06 15:23 67.94090 -39.62188 36556 ft 437 kts 298°
2026-05-06 15:23 67.96439 -39.77125 36554 ft 437 kts 298°
2026-05-06 15:24 67.98774 -39.92080 36554 ft 436 kts 298°
2026-05-06 15:24 68.01035 -40.07028 36550 ft 437 kts 296°
2026-05-06 15:25 68.03082 -40.22315 36548 ft 437 kts 295°
2026-05-06 15:25 68.05074 -40.37652 36553 ft 437 kts 295°
2026-05-06 15:26 68.07071 -40.52980 36548 ft 436 kts 295°
2026-05-06 15:26 68.09070 -40.68319 36553 ft 435 kts 295°
2026-05-06 15:27 68.11055 -40.83625 36546 ft 435 kts 295°
2026-05-06 15:27 68.13016 -40.98864 36544 ft 434 kts 295°
2026-05-06 15:28 68.14970 -41.14210 36542 ft 434 kts 295°
2026-05-06 15:28 68.16909 -41.29555 36545 ft 433 kts 295°
2026-05-06 15:29 68.18817 -41.44793 36535 ft 432 kts 295°
2026-05-06 15:29 68.20718 -41.60122 36531 ft 431 kts 295°
2026-05-06 15:30 68.22600 -41.75444 36537 ft 431 kts 295°
2026-05-06 15:30 68.24468 -41.90782 36536 ft 430 kts 294°
2026-05-06 15:31 68.26318 -42.06115 36541 ft 429 kts 294°
2026-05-06 15:31 68.28149 -42.21443 36530 ft 429 kts 294°
2026-05-06 15:32 68.30869 -42.44466 36524 ft 428 kts 294°
2026-05-06 15:32 68.32664 -42.59839 36518 ft 429 kts 294°
2026-05-06 15:33 68.34446 -42.75235 36514 ft 428 kts 294°
2026-05-06 15:33 68.36210 -42.90634 36510 ft 428 kts 294°
2026-05-06 15:34 68.37948 -43.05952 36510 ft 428 kts 294°
2026-05-06 15:34 68.39684 -43.21404 36504 ft 427 kts 294°
2026-05-06 15:35 68.41405 -43.36870 36506 ft 427 kts 293°
2026-05-06 15:35 68.43110 -43.52342 36496 ft 428 kts 293°
2026-05-06 15:36 68.44804 -43.67864 36493 ft 428 kts 293°
2026-05-06 15:36 68.46483 -43.83409 36490 ft 428 kts 293°
2026-05-06 15:37 68.48144 -43.98962 36493 ft 428 kts 293°
2026-05-06 15:37 68.49795 -44.14561 36487 ft 428 kts 292°
2026-05-06 15:38 68.51433 -44.30198 36485 ft 429 kts 292°
2026-05-06 15:38 68.53046 -44.45765 36485 ft 429 kts 292°
2026-05-06 15:39 68.54655 -44.61443 36485 ft 429 kts 292°
2026-05-06 15:39 68.56253 -44.77183 36486 ft 429 kts 292°
2026-05-06 15:40 68.57834 -44.92919 36488 ft 429 kts 292°
2026-05-06 15:40 68.59401 -45.08690 36485 ft 429 kts 292°
2026-05-06 15:41 68.60940 -45.24354 36482 ft 429 kts 291°
2026-05-06 15:41 68.62478 -45.40153 36482 ft 429 kts 291°
2026-05-06 15:42 68.63998 -45.55966 36486 ft 429 kts 291°
2026-05-06 15:42 68.65503 -45.71800 36499 ft 429 kts 291°
2026-05-06 15:43 68.66995 -45.87661 36484 ft 428 kts 291°
2026-05-06 15:43 68.68469 -46.03513 36496 ft 428 kts 291°
2026-05-06 15:44 68.69929 -46.19401 36501 ft 428 kts 290°
2026-05-06 15:44 68.71363 -46.35182 36507 ft 428 kts 290°
2026-05-06 15:45 68.72790 -46.51079 36513 ft 427 kts 290°
2026-05-06 15:45 68.74203 -46.66998 36515 ft 427 kts 290°
2026-05-06 15:46 68.75599 -46.82917 36526 ft 427 kts 290°
2026-05-06 15:46 68.76982 -46.98866 36530 ft 427 kts 289°
2026-05-06 15:47 68.78352 -47.14848 36526 ft 428 kts 289°
2026-05-06 15:47 68.79698 -47.30775 36521 ft 427 kts 289°
2026-05-06 15:48 68.81034 -47.46765 36515 ft 427 kts 289°
2026-05-06 15:48 68.82353 -47.62782 36508 ft 427 kts 288°
2026-05-06 15:49 68.83660 -47.78835 36500 ft 427 kts 288°
2026-05-06 15:49 68.84953 -47.94906 36495 ft 427 kts 288°
2026-05-06 15:50 68.86221 -48.10863 36475 ft 427 kts 288°
2026-05-06 15:50 68.87483 -48.26974 36468 ft 427 kts 288°
2026-05-06 15:51 68.88726 -48.43067 36458 ft 427 kts 287°
2026-05-06 15:51 68.89959 -48.59237 36434 ft 427 kts 287°
2026-05-06 15:52 68.91175 -48.75389 36417 ft 428 kts 287°
2026-05-06 15:52 68.92369 -48.91464 36403 ft 428 kts 287°
2026-05-06 15:53 68.93556 -49.07676 36386 ft 428 kts 286°
2026-05-06 15:53 68.94728 -49.23920 36367 ft 428 kts 286°
2026-05-06 15:54 68.95885 -49.40176 36358 ft 428 kts 286°
2026-05-06 15:54 68.96452 -49.48254 36610 ft 423 kts 285°
2026-05-06 15:54 68.97015 -49.56311 36841 ft 423 kts 285°
2026-05-06 15:55 68.97573 -49.64355 37095 ft 422 kts 285°
2026-05-06 15:55 68.98120 -49.72289 37341 ft 421 kts 285°
2026-05-06 15:55 68.98672 -49.80319 37602 ft 421 kts 285°
2026-05-06 15:55 68.99217 -49.88332 37861 ft 420 kts 284°
2026-05-06 15:56 68.99756 -49.96303 38115 ft 418 kts 285°
2026-05-06 15:56 69.00483 -50.04116 38383 ft 413 kts 292°
2026-05-06 15:56 69.01475 -50.11625 38674 ft 411 kts 293°
2026-05-06 15:56 69.02482 -50.19066 38940 ft 409 kts 293°
2026-05-06 15:57 69.03487 -50.26473 39160 ft 407 kts 293°
2026-05-06 15:57 69.04484 -50.33875 39367 ft 406 kts 293°
2026-05-06 15:57 69.05455 -50.41164 39526 ft 405 kts 292°
2026-05-06 15:57 69.06431 -50.48552 39687 ft 405 kts 292°
2026-05-06 15:58 69.07405 -50.55960 39836 ft 404 kts 292°
2026-05-06 15:58 69.08372 -50.63366 39997 ft 404 kts 292°
2026-05-06 15:58 69.09329 -50.70738 40156 ft 403 kts 292°
2026-05-06 15:58 69.10285 -50.78143 40292 ft 403 kts 292°
2026-05-06 15:59 69.12192 -50.92997 40320 ft 408 kts 291°
2026-05-06 15:59 69.14100 -51.08001 40330 ft 413 kts 291°
2026-05-06 16:00 69.16029 -51.23298 40326 ft 418 kts 291°
2026-05-06 16:00 69.17967 -51.38815 40325 ft 422 kts 291°
2026-05-06 16:01 69.19909 -51.54509 40318 ft 427 kts 291°
2026-05-06 16:01 69.21841 -51.70258 40318 ft 430 kts 290°
2026-05-06 16:02 69.23789 -51.86270 40310 ft 433 kts 290°
2026-05-06 16:02 69.25727 -52.02373 40301 ft 434 kts 290°
2026-05-06 16:03 69.27652 -52.18526 40307 ft 433 kts 290°
2026-05-06 16:03 69.29544 -52.34551 40308 ft 432 kts 290°
2026-05-06 16:04 69.31431 -52.50691 40301 ft 430 kts 289°
2026-05-06 16:04 69.33285 -52.66694 40302 ft 425 kts 289°
2026-05-06 16:05 69.35111 -52.82606 40310 ft 423 kts 289°
2026-05-06 16:05 69.36911 -52.98438 40316 ft 421 kts 289°
2026-05-06 16:06 69.38686 -53.14205 40314 ft 421 kts 289°
2026-05-06 16:06 69.40454 -53.30077 40320 ft 422 kts 288°
2026-05-06 16:07 69.41918 -53.43329 40323 ft 424 kts 288°
2026-05-06 16:07 69.43673 -53.59363 40329 ft 426 kts 288°
2026-05-06 16:08 69.45425 -53.75534 40318 ft 428 kts 288°
2026-05-06 16:08 69.47172 -53.91819 40325 ft 431 kts 288°
2026-05-06 16:09 69.48909 -54.08204 40322 ft 432 kts 287°
2026-05-06 16:09 69.50634 -54.24638 40323 ft 433 kts 287°
2026-05-06 16:10 69.52349 -54.41148 40323 ft 433 kts 287°
2026-05-06 16:10 69.54038 -54.57575 40318 ft 433 kts 287°
2026-05-06 16:11 69.55718 -54.74095 40322 ft 432 kts 286°
2026-05-06 16:11 69.57379 -54.90619 40319 ft 432 kts 286°
2026-05-06 16:12 69.59025 -55.07160 40320 ft 431 kts 286°
2026-05-06 16:12 69.60652 -55.23698 40319 ft 431 kts 285°
2026-05-06 16:13 69.62262 -55.40237 40320 ft 430 kts 285°
2026-05-06 16:13 69.63854 -55.56786 40318 ft 429 kts 285°
2026-05-06 16:14 69.65424 -55.73288 40323 ft 429 kts 285°
2026-05-06 16:14 69.66982 -55.89853 40322 ft 429 kts 285°
2026-05-06 16:15 69.68524 -56.06445 40322 ft 429 kts 284°
2026-05-06 16:15 69.70050 -56.23061 40321 ft 429 kts 284°
2026-05-06 16:16 69.71555 -56.39637 40323 ft 429 kts 284°
2026-05-06 16:16 69.73053 -56.56313 40321 ft 430 kts 284°
2026-05-06 16:17 69.74535 -56.73036 40314 ft 430 kts 284°
2026-05-06 16:17 69.76008 -56.89844 40317 ft 431 kts 283°
2026-05-06 16:18 69.77466 -57.06684 40316 ft 432 kts 283°
2026-05-06 16:18 69.78901 -57.23486 40313 ft 433 kts 283°
2026-05-06 16:19 69.80331 -57.40429 40307 ft 433 kts 283°
2026-05-06 16:19 69.81737 -57.57311 40307 ft 433 kts 283°
2026-05-06 16:20 69.83135 -57.74302 40311 ft 434 kts 282°
2026-05-06 16:20 69.84518 -57.91336 40308 ft 434 kts 282°
2026-05-06 16:21 69.85883 -58.08395 40305 ft 433 kts 282°
2026-05-06 16:21 69.87231 -58.25449 40306 ft 433 kts 282°
2026-05-06 16:22 69.88554 -58.42403 40299 ft 433 kts 282°
2026-05-06 16:22 69.89869 -58.59479 40297 ft 433 kts 281°
2026-05-06 16:23 69.91165 -58.76564 40300 ft 432 kts 281°
2026-05-06 16:23 69.92443 -58.93657 40294 ft 432 kts 281°
2026-05-06 16:24 69.93707 -59.10789 40297 ft 432 kts 281°
2026-05-06 16:24 69.94948 -59.27856 40291 ft 432 kts 281°
2026-05-06 16:25 69.96180 -59.45028 40297 ft 432 kts 280°
2026-05-06 16:25 69.97393 -59.62206 40291 ft 433 kts 280°
2026-05-06 16:26 69.98594 -59.79434 40293 ft 433 kts 280°
2026-05-06 16:26 69.99754 -59.96688 40284 ft 433 kts 277°
2026-05-06 16:27 69.99877 -60.14173 40295 ft 431 kts 266°
2026-05-06 16:27 69.99529 -60.31646 40291 ft 431 kts 266°
2026-05-06 16:28 69.99175 -60.49139 40282 ft 431 kts 266°
2026-05-06 16:28 69.98835 -60.66646 40283 ft 432 kts 266°
2026-05-06 16:29 69.98492 -60.84051 40284 ft 432 kts 266°
2026-05-06 16:29 69.98132 -61.01603 40282 ft 433 kts 265°
2026-05-06 16:30 69.97818 -61.16204 40283 ft 433 kts 265°
2026-05-06 16:30 69.97359 -61.36594 40279 ft 433 kts 265°
2026-05-06 16:31 69.96945 -61.54161 40281 ft 433 kts 265°
2026-05-06 16:31 69.96513 -61.71699 40275 ft 433 kts 265°
2026-05-06 16:32 69.96062 -61.89235 40279 ft 433 kts 264°
2026-05-06 16:32 69.95597 -62.06754 40272 ft 434 kts 264°
2026-05-06 16:33 69.95115 -62.24244 40274 ft 433 kts 264°
2026-05-06 16:34 69.94357 -62.50533 40271 ft 434 kts 264°
2026-05-06 16:34 69.93833 -62.67957 40266 ft 434 kts 263°
2026-05-06 16:35 69.93290 -62.85456 40271 ft 434 kts 263°
2026-05-06 16:35 69.92732 -63.02926 40264 ft 433 kts 263°
2026-05-06 16:36 69.92179 -63.20398 40263 ft 434 kts 265°
2026-05-06 16:36 69.92489 -63.37985 40271 ft 435 kts 273°
2026-05-06 16:37 69.93049 -63.55541 40272 ft 435 kts 273°
2026-05-06 16:37 69.93580 -63.73017 40264 ft 435 kts 272°
2026-05-06 16:38 69.94075 -63.90610 40267 ft 435 kts 272°
2026-05-06 16:38 69.94541 -64.08232 40268 ft 435 kts 272°
2026-05-06 16:39 69.94984 -64.25738 40264 ft 435 kts 272°
2026-05-06 16:39 69.95413 -64.43330 40260 ft 436 kts 271°
2026-05-06 16:40 69.95824 -64.60972 40265 ft 435 kts 271°
2026-05-06 16:40 69.96220 -64.78601 40255 ft 436 kts 271°
2026-05-06 16:41 69.96598 -64.96259 40264 ft 436 kts 271°
2026-05-06 16:41 69.96958 -65.13858 40268 ft 436 kts 271°
2026-05-06 16:42 69.97303 -65.31561 40261 ft 437 kts 271°
2026-05-06 16:42 69.97630 -65.49270 40256 ft 437 kts 270°
2026-05-06 16:43 69.97937 -65.66999 40262 ft 437 kts 270°
2026-05-06 16:43 69.98231 -65.84754 40263 ft 437 kts 270°
2026-05-06 16:44 69.98504 -66.02497 40267 ft 437 kts 270°
2026-05-06 16:44 69.98759 -66.20234 40265 ft 438 kts 270°
2026-05-06 16:45 69.98994 -66.37934 40226 ft 440 kts 270°
2026-05-06 16:45 69.99217 -66.55875 40265 ft 444 kts 270°
2026-05-06 16:46 69.99425 -66.74025 40272 ft 449 kts 270°
2026-05-06 16:46 69.99615 -66.92293 40275 ft 451 kts 270°
2026-05-06 16:47 69.99787 -67.10658 40269 ft 453 kts 270°
2026-05-06 16:47 69.99940 -67.29060 40267 ft 453 kts 270°
2026-05-06 16:48 70.00074 -67.47446 40266 ft 452 kts 269°
2026-05-06 16:48 70.00190 -67.65718 40272 ft 451 kts 269°
2026-05-06 16:49 70.00285 -67.84040 40267 ft 450 kts 269°
2026-05-06 16:49 70.00361 -68.02315 40271 ft 450 kts 269°
2026-05-06 16:50 70.00419 -68.20593 40262 ft 449 kts 269°
2026-05-06 16:50 70.00459 -68.38693 40266 ft 449 kts 269°
2026-05-06 16:51 70.00480 -68.56969 40262 ft 448 kts 268°
2026-05-06 16:51 70.00480 -68.75201 40258 ft 448 kts 268°
2026-05-06 16:52 70.00465 -68.93433 40253 ft 448 kts 268°
2026-05-06 16:52 70.00429 -69.11669 40245 ft 448 kts 268°
2026-05-06 16:53 70.00377 -69.29775 40234 ft 448 kts 268°
2026-05-06 16:53 70.00305 -69.47974 40233 ft 448 kts 268°
2026-05-06 16:54 70.00232 -69.63118 40221 ft 448 kts 267°
2026-05-06 16:54 70.00128 -69.81319 40205 ft 448 kts 267°
2026-05-06 16:55 69.99977 -69.99548 40203 ft 448 kts 263°
2026-05-06 16:55 69.98924 -70.17448 40180 ft 447 kts 256°
2026-05-06 16:56 69.97625 -70.35235 40176 ft 448 kts 256°
2026-05-06 16:56 69.96322 -70.53041 40154 ft 449 kts 256°
2026-05-06 16:57 69.95040 -70.70737 40158 ft 449 kts 256°
2026-05-06 16:57 69.93740 -70.88599 40150 ft 450 kts 256°
2026-05-06 16:58 69.92426 -71.06437 40157 ft 451 kts 256°
2026-05-06 16:58 69.91092 -71.24283 40163 ft 452 kts 256°
2026-05-06 16:59 69.89737 -71.42133 40168 ft 452 kts 256°
2026-05-06 16:59 69.88361 -71.59988 40176 ft 452 kts 255°
2026-05-06 17:00 69.86977 -71.77699 40168 ft 453 kts 255°
2026-05-06 17:00 69.85565 -71.95492 40183 ft 453 kts 255°
2026-05-06 17:01 69.84134 -72.13291 40173 ft 453 kts 255°
2026-05-06 17:01 69.82685 -72.31077 40164 ft 453 kts 255°
2026-05-06 17:02 69.81217 -72.48871 40148 ft 454 kts 255°
2026-05-06 17:02 69.79731 -72.66620 40135 ft 454 kts 254°
2026-05-06 17:03 69.78226 -72.84355 40139 ft 454 kts 254°
2026-05-06 17:03 69.76711 -73.01981 40125 ft 454 kts 254°
2026-05-06 17:04 69.75164 -73.19709 40111 ft 455 kts 254°
2026-05-06 17:04 69.73604 -73.37398 40118 ft 455 kts 253°
2026-05-06 17:05 69.72022 -73.55116 40107 ft 456 kts 253°
2026-05-06 17:05 69.70428 -73.72727 40101 ft 456 kts 253°
2026-05-06 17:06 69.68807 -73.90416 40092 ft 456 kts 253°
2026-05-06 17:06 69.67167 -74.08087 40094 ft 456 kts 253°
2026-05-06 17:07 69.65511 -74.25719 40093 ft 457 kts 253°
2026-05-06 17:07 69.63837 -74.43322 40091 ft 457 kts 252°
2026-05-06 17:08 69.62156 -74.60795 40097 ft 457 kts 252°
2026-05-06 17:08 69.60444 -74.78375 40094 ft 457 kts 252°
2026-05-06 17:09 69.58715 -74.95907 40091 ft 457 kts 252°
2026-05-06 17:09 69.56972 -75.13400 40094 ft 456 kts 252°
2026-05-06 17:10 69.55211 -75.30863 40092 ft 456 kts 251°
2026-05-06 17:10 69.53431 -75.48301 40088 ft 456 kts 251°
2026-05-06 17:11 69.51644 -75.65617 40094 ft 456 kts 251°
2026-05-06 17:11 69.49827 -75.83021 40086 ft 457 kts 251°
2026-05-06 17:12 69.48003 -76.00297 40084 ft 457 kts 251°
2026-05-06 17:12 69.46151 -76.17642 40078 ft 457 kts 251°
2026-05-06 17:13 69.44280 -76.34960 40078 ft 457 kts 250°
2026-05-06 17:13 69.42396 -76.52254 40076 ft 458 kts 250°
2026-05-06 17:14 69.40506 -76.69404 40074 ft 458 kts 250°
2026-05-06 17:14 69.38584 -76.86654 40078 ft 458 kts 250°
2026-05-06 17:15 69.36641 -77.03898 40075 ft 458 kts 250°
2026-05-06 17:15 69.34682 -77.21124 40076 ft 459 kts 250°
2026-05-06 17:16 69.32714 -77.38228 40072 ft 459 kts 249°
2026-05-06 17:16 69.30716 -77.55419 40074 ft 460 kts 249°
2026-05-06 17:17 69.28696 -77.72587 40073 ft 461 kts 249°
2026-05-06 17:17 69.26660 -77.89755 40074 ft 461 kts 249°
2026-05-06 17:18 69.24603 -78.06926 40077 ft 461 kts 249°
2026-05-06 17:18 69.22532 -78.24032 40073 ft 461 kts 249°
2026-05-06 17:19 69.20442 -78.41121 40073 ft 462 kts 249°
2026-05-06 17:19 69.18330 -78.58213 40071 ft 462 kts 248°
2026-05-06 17:20 69.16217 -78.75153 40068 ft 462 kts 248°
2026-05-06 17:20 69.14069 -78.92205 40068 ft 462 kts 248°
2026-05-06 17:21 69.11905 -79.09209 40072 ft 462 kts 248°
2026-05-06 17:21 69.09740 -79.26060 40067 ft 462 kts 248°
2026-05-06 17:22 69.07545 -79.42979 40061 ft 462 kts 248°
2026-05-06 17:22 69.05335 -79.59878 40058 ft 463 kts 248°
2026-05-06 17:23 69.03105 -79.76745 40070 ft 463 kts 248°
2026-05-06 17:23 69.00860 -79.93596 40057 ft 463 kts 247°
2026-05-06 17:24 68.98525 -80.10273 40063 ft 463 kts 245°
2026-05-06 17:24 68.95920 -80.26696 40062 ft 463 kts 243°
2026-05-06 17:25 68.93269 -80.43065 40063 ft 464 kts 244°
2026-05-06 17:25 68.90629 -80.59460 40054 ft 465 kts 244°
2026-05-06 17:26 68.88009 -80.75743 40050 ft 465 kts 244°
2026-05-06 17:26 68.85358 -80.92132 40037 ft 466 kts 244°
2026-05-06 17:27 68.82684 -81.08521 40039 ft 467 kts 243°
2026-05-06 17:27 68.79992 -81.24874 40038 ft 467 kts 243°
2026-05-06 17:28 68.77283 -81.41202 40041 ft 468 kts 243°
2026-05-06 17:28 68.74554 -81.57509 40039 ft 469 kts 243°
2026-05-06 17:29 68.71805 -81.73812 40042 ft 469 kts 243°
2026-05-06 17:29 68.69057 -81.89973 40043 ft 469 kts 243°
2026-05-06 17:30 68.66271 -82.06218 40047 ft 469 kts 243°
2026-05-06 17:30 68.63471 -82.22387 40050 ft 469 kts 242°
2026-05-06 17:31 68.60662 -82.38514 40052 ft 468 kts 242°
2026-05-06 17:31 68.57836 -82.54608 40064 ft 470 kts 242°
2026-05-06 17:32 68.55007 -82.70580 40068 ft 470 kts 242°
2026-05-06 17:32 68.52143 -82.86639 40063 ft 471 kts 242°
2026-05-06 17:33 68.49256 -83.02698 40065 ft 471 kts 242°
2026-05-06 17:33 68.46357 -83.18695 40058 ft 470 kts 242°
2026-05-06 17:34 68.43449 -83.34619 40060 ft 469 kts 242°
2026-05-06 17:34 68.40525 -83.50481 40062 ft 470 kts 242°
2026-05-06 17:35 68.37589 -83.66317 40064 ft 470 kts 241°
2026-05-06 17:35 68.34632 -83.82139 40061 ft 471 kts 241°
2026-05-06 17:36 68.30185 -84.05711 40053 ft 471 kts 241°
2026-05-06 17:36 68.27189 -84.21418 40060 ft 471 kts 240°
2026-05-06 17:37 68.24177 -84.37101 40052 ft 471 kts 240°
2026-05-06 17:37 68.21150 -84.52772 40042 ft 471 kts 240°
2026-05-06 17:38 68.18108 -84.68395 40052 ft 471 kts 240°
2026-05-06 17:38 68.15046 -84.83979 40046 ft 471 kts 240°
2026-05-06 17:39 68.11969 -84.99540 40041 ft 472 kts 240°
2026-05-06 17:39 68.08876 -85.15057 40045 ft 472 kts 240°
2026-05-06 17:40 68.05769 -85.30515 40034 ft 472 kts 240°
2026-05-06 17:40 68.02650 -85.45935 40034 ft 472 kts 240°
2026-05-06 17:41 68.00045 -85.58736 40023 ft 472 kts 240°
2026-05-06 17:41 67.96890 -85.74133 40029 ft 472 kts 240°
2026-05-06 17:42 67.93744 -85.89355 40022 ft 472 kts 239°
2026-05-06 17:42 67.90560 -86.04658 40023 ft 472 kts 239°
2026-05-06 17:43 67.87364 -86.19927 40021 ft 472 kts 239°
2026-05-06 17:43 67.84175 -86.35060 40021 ft 472 kts 239°
2026-05-06 17:44 67.80951 -86.50245 40024 ft 473 kts 239°
2026-05-06 17:44 67.77703 -86.65419 40025 ft 474 kts 238°
2026-05-06 17:45 67.74458 -86.80471 40028 ft 474 kts 238°
2026-05-06 17:45 67.71181 -86.95570 40035 ft 475 kts 238°
2026-05-06 17:46 67.67888 -87.10656 40036 ft 475 kts 238°
2026-05-06 17:46 67.64582 -87.25685 40040 ft 474 kts 238°
2026-05-06 17:47 67.61254 -87.40677 40046 ft 475 kts 238°
2026-05-06 17:47 67.57930 -87.55565 40051 ft 476 kts 238°
2026-05-06 17:48 67.54565 -87.70535 40050 ft 477 kts 238°
2026-05-06 17:48 67.51185 -87.85482 40052 ft 477 kts 238°
2026-05-06 17:49 67.47807 -88.00312 40066 ft 478 kts 237°
2026-05-06 17:49 67.44398 -88.15184 40055 ft 478 kts 237°
2026-05-06 17:50 67.40972 -88.30027 40050 ft 478 kts 237°
2026-05-06 17:50 67.37528 -88.44832 40056 ft 478 kts 237°
2026-05-06 17:51 67.34066 -88.59607 40061 ft 479 kts 237°
2026-05-06 17:51 67.30587 -88.74347 40053 ft 479 kts 237°
2026-05-06 17:52 67.27092 -88.89080 40059 ft 479 kts 237°
2026-05-06 17:52 67.23611 -89.03652 40065 ft 480 kts 237°
2026-05-06 17:53 67.20095 -89.18289 40059 ft 480 kts 236°
2026-05-06 17:53 67.16551 -89.32898 40065 ft 481 kts 236°
2026-05-06 17:54 67.12993 -89.47493 40060 ft 481 kts 236°
2026-05-06 17:54 67.09419 -89.62044 40069 ft 482 kts 236°
2026-05-06 17:55 67.05827 -89.76585 40058 ft 482 kts 236°
2026-05-06 17:55 67.02231 -89.91081 40058 ft 482 kts 236°
2026-05-06 17:56 66.98632 -90.05555 40073 ft 482 kts 237°
2026-05-06 17:56 66.95153 -90.20080 40061 ft 482 kts 237°
2026-05-06 17:57 66.91674 -90.34701 40057 ft 482 kts 237°
2026-05-06 17:57 66.88173 -90.49257 40062 ft 482 kts 237°
2026-05-06 17:58 66.84647 -90.63737 40063 ft 482 kts 237°
2026-05-06 17:58 66.81107 -90.78189 40062 ft 481 kts 237°
2026-05-06 17:59 66.77555 -90.92613 40062 ft 481 kts 237°
2026-05-06 17:59 66.73987 -91.06972 40046 ft 481 kts 237°
2026-05-06 18:00 66.70414 -91.21254 40059 ft 480 kts 237°
2026-05-06 18:00 66.66856 -91.35404 40060 ft 480 kts 236°
2026-05-06 18:01 66.63261 -91.49613 40048 ft 480 kts 236°
2026-05-06 18:01 66.59659 -91.63765 40053 ft 480 kts 236°
2026-05-06 18:02 66.56036 -91.77861 40058 ft 479 kts 236°
2026-05-06 18:02 66.52407 -91.91926 40070 ft 479 kts 236°
2026-05-06 18:03 66.48788 -92.05858 40055 ft 479 kts 236°
2026-05-06 18:03 66.45140 -92.19822 40068 ft 479 kts 236°
2026-05-06 18:04 66.41481 -92.33741 40065 ft 479 kts 236°
2026-05-06 18:04 66.37824 -92.47575 40072 ft 480 kts 236°
2026-05-06 18:05 66.34123 -92.61458 40090 ft 481 kts 236°
2026-05-06 18:05 66.30406 -92.75309 40070 ft 481 kts 235°
2026-05-06 18:06 66.26700 -92.89047 40061 ft 481 kts 235°
2026-05-06 18:06 66.22966 -93.02803 40069 ft 480 kts 236°
2026-05-06 18:07 66.19221 -93.16534 40064 ft 480 kts 235°
2026-05-06 18:07 66.15459 -93.30226 40066 ft 480 kts 235°
2026-05-06 18:08 66.11713 -93.43776 40066 ft 480 kts 235°
2026-05-06 18:08 66.07930 -93.57373 40063 ft 480 kts 234°
2026-05-06 18:09 66.04157 -93.70849 40067 ft 480 kts 234°
2026-05-06 18:09 66.00353 -93.84349 40068 ft 480 kts 234°
2026-05-06 18:10 65.96537 -93.97818 40077 ft 481 kts 234°
2026-05-06 18:10 65.92702 -94.11263 40071 ft 480 kts 234°
2026-05-06 18:11 65.88871 -94.24635 40073 ft 480 kts 234°
2026-05-06 18:11 65.85017 -94.37992 40075 ft 481 kts 234°
2026-05-06 18:12 65.81144 -94.51330 40072 ft 480 kts 233°
2026-05-06 18:12 65.77289 -94.64535 40076 ft 481 kts 233°
2026-05-06 18:13 65.73396 -94.77796 40075 ft 481 kts 233°
2026-05-06 18:13 65.69488 -94.91015 40077 ft 481 kts 233°
2026-05-06 18:14 65.65574 -95.04185 40083 ft 481 kts 233°
2026-05-06 18:14 65.61648 -95.17314 40080 ft 481 kts 233°
2026-05-06 18:15 65.57711 -95.30406 40083 ft 481 kts 233°
2026-05-06 18:15 65.53763 -95.43459 40091 ft 481 kts 233°
2026-05-06 18:16 65.49801 -95.56475 40094 ft 481 kts 233°
2026-05-06 18:16 65.45829 -95.69449 40096 ft 481 kts 233°
2026-05-06 18:17 65.41851 -95.82369 40096 ft 481 kts 233°
2026-05-06 18:17 65.37885 -95.95179 40101 ft 481 kts 233°
2026-05-06 18:18 65.33882 -96.08028 40104 ft 481 kts 232°
2026-05-06 18:18 65.29867 -96.20840 40106 ft 481 kts 232°
2026-05-06 18:19 65.25846 -96.33606 40113 ft 481 kts 232°
2026-05-06 18:19 65.21812 -96.46333 40112 ft 481 kts 232°
2026-05-06 18:20 65.17759 -96.59053 40118 ft 481 kts 232°
2026-05-06 18:20 65.13696 -96.71730 40120 ft 481 kts 232°
2026-05-06 18:21 65.09619 -96.84372 40125 ft 481 kts 232°
2026-05-06 18:21 65.05563 -96.96884 40125 ft 482 kts 232°
2026-05-06 18:22 65.01465 -97.09455 40129 ft 482 kts 232°
2026-05-06 18:22 64.97346 -97.22016 40124 ft 482 kts 232°
2026-05-06 18:23 64.93245 -97.34455 40130 ft 483 kts 232°
2026-05-06 18:23 64.89099 -97.46950 40128 ft 483 kts 231°
2026-05-06 18:24 64.84970 -97.59338 40128 ft 484 kts 231°
2026-05-06 18:24 64.80777 -97.71849 40127 ft 483 kts 231°
2026-05-06 18:25 64.77309 -97.82148 40128 ft 484 kts 231°
2026-05-06 18:25 64.73128 -97.94481 40131 ft 483 kts 231°
2026-05-06 18:26 64.68248 -98.08795 40133 ft 483 kts 231°
2026-05-06 18:26 64.64759 -98.18980 40133 ft 483 kts 231°
2026-05-06 18:27 64.60548 -98.31212 40139 ft 483 kts 231°
2026-05-06 18:27 64.56330 -98.43399 40141 ft 483 kts 231°
2026-05-06 18:28 64.52096 -98.55563 40144 ft 483 kts 231°
2026-05-06 18:28 64.47855 -98.67671 40146 ft 483 kts 231°
2026-05-06 18:29 64.43605 -98.79746 40151 ft 483 kts 231°
2026-05-06 18:29 64.39355 -98.91753 40155 ft 483 kts 231°
2026-05-06 18:30 64.35086 -99.03753 40158 ft 483 kts 231°
2026-05-06 18:30 64.30837 -99.15629 40162 ft 483 kts 231°
2026-05-06 18:31 64.26544 -99.27564 40163 ft 482 kts 231°
2026-05-06 18:31 64.22253 -99.39435 40168 ft 482 kts 230°
2026-05-06 18:32 64.17958 -99.51247 40174 ft 482 kts 230°
2026-05-06 18:32 64.13682 -99.62948 40178 ft 481 kts 230°
2026-05-06 18:33 64.09377 -99.74674 40181 ft 481 kts 230°
2026-05-06 18:33 64.05071 -99.86337 40179 ft 480 kts 230°
2026-05-06 18:34 64.00756 -99.97967 40186 ft 480 kts 230°
2026-05-06 18:34 63.96238 -100.09193 40192 ft 480 kts 226°
2026-05-06 18:35 63.91565 -100.20015 40190 ft 480 kts 226°
2026-05-06 18:35 63.86876 -100.30800 40191 ft 480 kts 226°
2026-05-06 18:36 63.82227 -100.41539 40197 ft 480 kts 226°
2026-05-06 18:36 63.77556 -100.52329 40198 ft 480 kts 226°
2026-05-06 18:37 63.72873 -100.63107 40200 ft 480 kts 226°
2026-05-06 18:37 63.68176 -100.73860 40201 ft 481 kts 226°
2026-05-06 18:38 63.63467 -100.84581 40199 ft 481 kts 226°
2026-05-06 18:38 63.58751 -100.95254 40205 ft 481 kts 226°
2026-05-06 18:39 63.54057 -101.05837 40199 ft 481 kts 226°
2026-05-06 18:40 63.46974 -101.21706 40201 ft 481 kts 226°
2026-05-06 18:40 63.42234 -101.32258 40206 ft 481 kts 226°
2026-05-06 18:41 63.37483 -101.42781 40199 ft 481 kts 225°
2026-05-06 18:41 63.32731 -101.53260 40202 ft 480 kts 225°
2026-05-06 18:42 63.27975 -101.63692 40205 ft 480 kts 225°
2026-05-06 18:42 63.23198 -101.74118 40204 ft 481 kts 225°
2026-05-06 18:43 63.18432 -101.84467 40202 ft 480 kts 225°
2026-05-06 18:43 63.13640 -101.94825 40206 ft 481 kts 225°
2026-05-06 18:44 63.08845 -102.05140 40204 ft 481 kts 225°
2026-05-06 18:44 63.04066 -102.15371 40204 ft 481 kts 225°
2026-05-06 18:45 62.99247 -102.25635 40206 ft 482 kts 225°
2026-05-06 18:45 62.94412 -102.35885 40208 ft 482 kts 225°
2026-05-06 18:46 62.89574 -102.46093 40205 ft 482 kts 225°
2026-05-06 18:46 62.84760 -102.56202 40209 ft 482 kts 225°
2026-05-06 18:47 62.79901 -102.66352 40205 ft 482 kts 225°
2026-05-06 18:47 62.75041 -102.76459 40204 ft 482 kts 225°
2026-05-06 18:48 62.70171 -102.86542 40200 ft 482 kts 225°
2026-05-06 18:48 62.65299 -102.96577 40199 ft 482 kts 225°
2026-05-06 18:49 62.60449 -103.06522 40198 ft 482 kts 225°
2026-05-06 18:49 62.55562 -103.16491 40200 ft 482 kts 224°
2026-05-06 18:50 62.50669 -103.26425 40196 ft 482 kts 224°
2026-05-06 18:50 62.45777 -103.36313 40186 ft 482 kts 224°
2026-05-06 18:51 62.40868 -103.46188 40190 ft 481 kts 224°
2026-05-06 18:51 62.35953 -103.56034 40184 ft 481 kts 224°
2026-05-06 18:52 62.31030 -103.65845 40182 ft 482 kts 224°
2026-05-06 18:52 62.26105 -103.75615 40180 ft 482 kts 224°
2026-05-06 18:53 62.21169 -103.85359 40180 ft 482 kts 224°
2026-05-06 18:53 62.16254 -103.95020 40172 ft 482 kts 224°
2026-05-06 18:54 62.11300 -104.04713 40171 ft 483 kts 224°
2026-05-06 18:54 62.06328 -104.14394 40170 ft 483 kts 224°
2026-05-06 18:55 62.01376 -104.23989 40171 ft 483 kts 224°
2026-05-06 18:55 61.96393 -104.33602 40164 ft 483 kts 224°
2026-05-06 18:56 61.91404 -104.43186 40162 ft 484 kts 224°
2026-05-06 18:56 61.86386 -104.52774 40163 ft 484 kts 224°
2026-05-06 18:57 61.81403 -104.62249 40159 ft 484 kts 224°
2026-05-06 18:57 61.76386 -104.71758 40159 ft 484 kts 224°
2026-05-06 18:58 61.71358 -104.81245 40157 ft 485 kts 224°
2026-05-06 18:58 61.66313 -104.90714 40161 ft 485 kts 223°
2026-05-06 18:59 61.61259 -105.00157 40156 ft 485 kts 223°
2026-05-06 18:59 61.56239 -105.09495 40153 ft 485 kts 223°
2026-05-06 19:00 61.51174 -105.18874 40148 ft 485 kts 223°
2026-05-06 19:00 61.46094 -105.28235 40147 ft 485 kts 223°
2026-05-06 19:01 61.41017 -105.37547 40148 ft 485 kts 223°
2026-05-06 19:01 61.35967 -105.46773 40148 ft 485 kts 223°
2026-05-06 19:02 61.30878 -105.56028 40145 ft 486 kts 223°
2026-05-06 19:02 61.25781 -105.65258 40145 ft 485 kts 223°
2026-05-06 19:03 61.20677 -105.74457 40143 ft 486 kts 223°
2026-05-06 19:03 61.15564 -105.83631 40137 ft 486 kts 223°
2026-05-06 19:04 61.10447 -105.92761 40124 ft 485 kts 223°
2026-05-06 19:04 61.05330 -106.01862 40134 ft 485 kts 223°
2026-05-06 19:05 61.00205 -106.10941 40139 ft 485 kts 223°
2026-05-06 19:05 60.95087 -106.19971 40134 ft 484 kts 223°
2026-05-06 19:06 60.89962 -106.28979 40141 ft 485 kts 223°
2026-05-06 19:06 60.84828 -106.37942 40135 ft 485 kts 223°
2026-05-06 19:07 60.79677 -106.46897 40124 ft 485 kts 222°
2026-05-06 19:07 60.74561 -106.55754 40135 ft 485 kts 223°
2026-05-06 19:08 60.69412 -106.64630 40124 ft 484 kts 222°
2026-05-06 19:08 60.64258 -106.73487 40125 ft 484 kts 222°
2026-05-06 19:09 60.59107 -106.82296 40120 ft 483 kts 222°
2026-05-06 19:09 60.53943 -106.91085 40127 ft 484 kts 222°
2026-05-06 19:10 60.48775 -106.99843 40122 ft 484 kts 222°
2026-05-06 19:10 60.43632 -107.08528 40122 ft 484 kts 222°
2026-05-06 19:11 60.38448 -107.17245 40118 ft 484 kts 222°
2026-05-06 19:11 60.34135 -107.24467 40127 ft 484 kts 222°
2026-05-06 19:12 60.28932 -107.33140 40121 ft 484 kts 222°
2026-05-06 19:12 60.23720 -107.41787 40123 ft 484 kts 222°
2026-05-06 19:13 60.18557 -107.50324 40129 ft 483 kts 222°
2026-05-06 19:13 60.13365 -107.58875 40120 ft 482 kts 222°
2026-05-06 19:14 60.08168 -107.67400 40126 ft 482 kts 221°
2026-05-06 19:14 60.02961 -107.75904 40124 ft 482 kts 221°
2026-05-06 19:15 59.97757 -107.84365 40124 ft 482 kts 221°
2026-05-06 19:15 59.92541 -107.92809 40127 ft 482 kts 221°
2026-05-06 19:16 59.87352 -108.01178 40124 ft 482 kts 221°
2026-05-06 19:16 59.82129 -108.09557 40136 ft 482 kts 221°
2026-05-06 19:17 59.76904 -108.17919 40134 ft 482 kts 221°
2026-05-06 19:17 59.71683 -108.26228 40139 ft 481 kts 221°
2026-05-06 19:18 59.66449 -108.34535 40141 ft 481 kts 221°
2026-05-06 19:18 59.61240 -108.42772 40132 ft 481 kts 221°
2026-05-06 19:19 59.56000 -108.51018 40135 ft 481 kts 221°
2026-05-06 19:19 59.50702 -108.59127 40133 ft 481 kts 220°
2026-05-06 19:20 59.45360 -108.67087 40134 ft 481 kts 220°
2026-05-06 19:20 59.40021 -108.75017 40128 ft 480 kts 220°
2026-05-06 19:21 59.34723 -108.82882 40118 ft 480 kts 220°
2026-05-06 19:21 59.29400 -108.90774 40112 ft 480 kts 220°
2026-05-06 19:22 59.24074 -108.98640 40114 ft 479 kts 220°
2026-05-06 19:22 59.18748 -109.06477 40103 ft 479 kts 220°
2026-05-06 19:23 59.13428 -109.14273 40099 ft 478 kts 220°
2026-05-06 19:23 59.08131 -109.22000 40097 ft 478 kts 220°
2026-05-06 19:24 59.02794 -109.29755 40082 ft 478 kts 220°
2026-05-06 19:24 58.97455 -109.37485 40075 ft 478 kts 220°
2026-05-06 19:25 58.92120 -109.45175 40070 ft 478 kts 220°
2026-05-06 19:25 58.86781 -109.52843 40054 ft 478 kts 219°
2026-05-06 19:26 58.81468 -109.60441 40046 ft 478 kts 219°
2026-05-06 19:26 58.76125 -109.68056 40036 ft 478 kts 219°
2026-05-06 19:27 58.70774 -109.75651 40033 ft 477 kts 219°
2026-05-06 19:27 58.65420 -109.83221 40023 ft 478 kts 219°
2026-05-06 19:28 58.60052 -109.90779 40015 ft 478 kts 219°
2026-05-06 19:28 58.54686 -109.98306 40011 ft 478 kts 219°
2026-05-06 19:29 58.49323 -110.05802 40013 ft 477 kts 219°
2026-05-06 19:29 58.43954 -110.13275 40004 ft 477 kts 219°
2026-05-06 19:30 58.38615 -110.20678 39999 ft 477 kts 219°
2026-05-06 19:30 58.33235 -110.28108 40004 ft 477 kts 219°
2026-05-06 19:31 58.27847 -110.35522 39989 ft 477 kts 219°
2026-05-06 19:31 58.19764 -110.46594 39995 ft 477 kts 219°
2026-05-06 19:32 58.14379 -110.53936 39993 ft 476 kts 219°
2026-05-06 19:32 58.08989 -110.61252 39982 ft 477 kts 219°
2026-05-06 19:33 58.03627 -110.68504 39984 ft 477 kts 219°
2026-05-06 19:33 57.98233 -110.75770 39979 ft 476 kts 219°
2026-05-06 19:34 57.92832 -110.83025 39975 ft 476 kts 219°
2026-05-06 19:34 57.87422 -110.90259 39969 ft 476 kts 219°
2026-05-06 19:35 57.82016 -110.97463 39966 ft 476 kts 219°
2026-05-06 19:35 57.76598 -111.04654 39966 ft 476 kts 219°
2026-05-06 19:36 57.71223 -111.11759 39967 ft 475 kts 219°
2026-05-06 19:36 57.65813 -111.18889 39969 ft 476 kts 219°
2026-05-06 19:37 57.60396 -111.25999 39959 ft 476 kts 219°
2026-05-06 19:37 57.55882 -111.31905 39968 ft 476 kts 219°
2026-05-06 19:38 57.49569 -111.40131 39960 ft 475 kts 219°
2026-05-06 19:38 57.44146 -111.47171 39958 ft 475 kts 219°
2026-05-06 19:39 57.38727 -111.54181 39963 ft 474 kts 219°
2026-05-06 19:39 57.33299 -111.61173 39953 ft 474 kts 219°
2026-05-06 19:40 57.27917 -111.68080 39952 ft 473 kts 219°
2026-05-06 19:40 57.22506 -111.75003 39956 ft 473 kts 219°
2026-05-06 19:41 57.17088 -111.81913 39949 ft 472 kts 219°
2026-05-06 19:41 57.11686 -111.88774 39946 ft 471 kts 219°
2026-05-06 19:42 57.06286 -111.95606 39941 ft 471 kts 219°
2026-05-06 19:42 57.00890 -112.02410 39939 ft 470 kts 219°
2026-05-06 19:43 56.95498 -112.09186 39928 ft 469 kts 219°
2026-05-06 19:43 56.90142 -112.15892 39933 ft 469 kts 219°
2026-05-06 19:44 56.84722 -112.22656 39917 ft 469 kts 219°
2026-05-06 19:44 56.79369 -112.29313 39919 ft 468 kts 219°
2026-05-06 19:45 56.73982 -112.35989 39924 ft 468 kts 219°
2026-05-06 19:45 56.68755 -112.42984 39920 ft 465 kts 223°
2026-05-06 19:46 56.63711 -112.50304 39907 ft 463 kts 223°
2026-05-06 19:46 56.58672 -112.57629 39905 ft 463 kts 223°
2026-05-06 19:47 56.53620 -112.64884 39906 ft 463 kts 223°
2026-05-06 19:47 56.48555 -112.72089 39900 ft 463 kts 223°
2026-05-06 19:48 56.43478 -112.79278 39895 ft 463 kts 223°
2026-05-06 19:48 56.38433 -112.86394 39892 ft 462 kts 223°
2026-05-06 19:49 56.33352 -112.93540 39887 ft 462 kts 223°
2026-05-06 19:49 56.28269 -113.00668 39889 ft 462 kts 223°
2026-05-06 19:50 56.23196 -113.07753 39887 ft 462 kts 223°
2026-05-06 19:50 56.18132 -113.14802 39884 ft 462 kts 222°
2026-05-06 19:51 56.13043 -113.21862 39877 ft 462 kts 222°
2026-05-06 19:51 56.07953 -113.28900 39879 ft 462 kts 222°
2026-05-06 19:52 56.02858 -113.35919 39876 ft 461 kts 222°
2026-05-06 19:52 55.97759 -113.42920 39870 ft 461 kts 222°
2026-05-06 19:53 55.92671 -113.49883 39879 ft 460 kts 222°
2026-05-06 19:53 55.87615 -113.56782 39860 ft 460 kts 222°
2026-05-06 19:54 55.82519 -113.63712 39873 ft 460 kts 222°
2026-05-06 19:54 55.77426 -113.70609 39869 ft 459 kts 222°
2026-05-06 19:55 55.72368 -113.77436 39870 ft 459 kts 222°
2026-05-06 19:55 55.67275 -113.84289 39867 ft 459 kts 222°
2026-05-06 19:56 55.63049 -113.89959 39873 ft 458 kts 221°
2026-05-06 19:56 55.57970 -113.96751 39868 ft 458 kts 221°
2026-05-06 19:57 55.52891 -114.03522 39872 ft 457 kts 221°
2026-05-06 19:57 55.47804 -114.10279 39867 ft 457 kts 221°
2026-05-06 19:58 55.42726 -114.17002 39861 ft 456 kts 221°
2026-05-06 19:58 55.37652 -114.23698 39859 ft 455 kts 221°
2026-05-06 19:59 55.32589 -114.30363 39856 ft 455 kts 221°
2026-05-06 19:59 55.27555 -114.36964 39851 ft 454 kts 221°
2026-05-06 20:00 55.22480 -114.43596 39842 ft 454 kts 221°
2026-05-06 20:00 55.17410 -114.50202 39840 ft 454 kts 221°
2026-05-06 20:01 55.12340 -114.56786 39845 ft 454 kts 221°
2026-05-06 20:01 55.07266 -114.63354 39844 ft 454 kts 221°
2026-05-06 20:02 55.02188 -114.69904 39852 ft 454 kts 221°
2026-05-06 20:02 54.97095 -114.76452 39857 ft 454 kts 220°
2026-05-06 20:03 54.92039 -114.82934 39870 ft 454 kts 220°
2026-05-06 20:03 54.86947 -114.89442 39868 ft 454 kts 220°
2026-05-06 20:04 54.81859 -114.95924 39861 ft 454 kts 220°
2026-05-06 20:04 54.76758 -115.02398 39861 ft 453 kts 220°
2026-05-06 20:05 54.71668 -115.08837 39864 ft 453 kts 220°
2026-05-06 20:05 54.66571 -115.15267 39867 ft 453 kts 220°
2026-05-06 20:06 54.61494 -115.21652 39861 ft 453 kts 220°
2026-05-06 20:06 54.56397 -115.28042 39864 ft 452 kts 220°
2026-05-06 20:07 54.51301 -115.34413 39867 ft 452 kts 220°
2026-05-06 20:07 54.46236 -115.40722 39864 ft 451 kts 220°
2026-05-06 20:08 54.41138 -115.47053 39863 ft 451 kts 219°
2026-05-06 20:08 54.36050 -115.53352 39858 ft 450 kts 219°
2026-05-06 20:09 54.30968 -115.59623 39853 ft 450 kts 219°
2026-05-06 20:09 54.25877 -115.65886 39849 ft 450 kts 219°
2026-05-06 20:10 54.20785 -115.72136 39841 ft 450 kts 219°
2026-05-06 20:10 54.15721 -115.78330 39844 ft 450 kts 219°
2026-05-06 20:11 54.10922 -115.85084 39845 ft 446 kts 226°
2026-05-06 20:11 54.06355 -115.92274 39839 ft 445 kts 226°
2026-05-06 20:12 54.01811 -115.99435 39845 ft 444 kts 226°
2026-05-06 20:12 53.97250 -116.06522 39854 ft 444 kts 226°
2026-05-06 20:13 53.92656 -116.13590 39844 ft 445 kts 225°
2026-05-06 20:13 53.88083 -116.20589 39844 ft 445 kts 225°
2026-05-06 20:14 53.83471 -116.27626 39830 ft 445 kts 225°
2026-05-06 20:14 53.78887 -116.34602 39825 ft 444 kts 225°
2026-05-06 20:15 53.74286 -116.41582 39810 ft 444 kts 225°
2026-05-06 20:15 53.69712 -116.48498 39814 ft 444 kts 225°
2026-05-06 20:16 53.65112 -116.55434 39814 ft 443 kts 225°
2026-05-06 20:16 53.60506 -116.62358 39804 ft 443 kts 225°
2026-05-06 20:17 53.55896 -116.69268 39811 ft 443 kts 225°
2026-05-06 20:17 53.51289 -116.76152 39809 ft 442 kts 225°
2026-05-06 20:18 53.46709 -116.82973 39817 ft 442 kts 225°
2026-05-06 20:18 53.42104 -116.89812 39828 ft 442 kts 224°
2026-05-06 20:19 53.37496 -116.96635 39840 ft 441 kts 224°
2026-05-06 20:19 53.32891 -117.03434 39845 ft 441 kts 224°
2026-05-06 20:20 53.28279 -117.10221 39857 ft 441 kts 224°
2026-05-06 20:20 53.23669 -117.16988 39851 ft 441 kts 224°
2026-05-06 20:21 53.19086 -117.23692 39865 ft 441 kts 224°
2026-05-06 20:21 53.14463 -117.30436 39872 ft 441 kts 224°
2026-05-06 20:22 53.09840 -117.37161 39874 ft 442 kts 224°
2026-05-06 20:22 53.05202 -117.43887 39874 ft 442 kts 224°
2026-05-06 20:23 53.00556 -117.50600 39878 ft 443 kts 224°
2026-05-06 20:23 52.95908 -117.57300 39895 ft 442 kts 224°
2026-05-06 20:24 52.91249 -117.63998 39907 ft 443 kts 224°
2026-05-06 20:24 52.86604 -117.70660 39907 ft 445 kts 224°
2026-05-06 20:25 52.81911 -117.77364 39910 ft 446 kts 224°
2026-05-06 20:25 52.77197 -117.84079 39908 ft 447 kts 224°
2026-05-06 20:26 52.72471 -117.90791 39913 ft 448 kts 224°
2026-05-06 20:26 52.67775 -117.97444 39911 ft 447 kts 224°
2026-05-06 20:27 52.63061 -118.04092 39922 ft 445 kts 224°
2026-05-06 20:27 52.58344 -118.10732 39934 ft 445 kts 224°
2026-05-06 20:28 52.53631 -118.17351 39931 ft 445 kts 224°
2026-05-06 20:28 52.48946 -118.23906 39924 ft 444 kts 224°
2026-05-06 20:29 52.44234 -118.30481 39933 ft 444 kts 224°
2026-05-06 20:29 52.39522 -118.37037 39930 ft 444 kts 224°
2026-05-06 20:30 52.32444 -118.46852 39939 ft 444 kts 224°
2026-05-06 20:31 52.27749 -118.53338 39934 ft 444 kts 224°
2026-05-06 20:31 52.23019 -118.59851 39931 ft 444 kts 224°
2026-05-06 20:32 52.18288 -118.66351 39934 ft 444 kts 224°
2026-05-06 20:32 52.13560 -118.72826 39922 ft 442 kts 224°
2026-05-06 20:33 52.08875 -118.79221 39936 ft 442 kts 224°
2026-05-06 20:33 52.04161 -118.85638 39942 ft 441 kts 224°
2026-05-06 20:34 51.99458 -118.92026 39907 ft 441 kts 225°
2026-05-06 20:34 51.94752 -118.98396 39940 ft 441 kts 224°
2026-05-06 20:35 51.90034 -119.04770 39937 ft 441 kts 224°
2026-05-06 20:35 51.85332 -119.11101 39925 ft 442 kts 224°
2026-05-06 20:36 51.80589 -119.17469 39934 ft 442 kts 224°
2026-05-06 20:36 51.75849 -119.23815 39931 ft 442 kts 224°
2026-05-06 20:37 51.71103 -119.30152 39929 ft 443 kts 224°
2026-05-06 20:37 51.66381 -119.36438 39921 ft 443 kts 224°
2026-05-06 20:38 51.61626 -119.42748 39913 ft 443 kts 224°
2026-05-06 20:38 51.56867 -119.49050 39913 ft 443 kts 224°
2026-05-06 20:39 51.52104 -119.55338 39911 ft 442 kts 224°
2026-05-06 20:39 51.47350 -119.61596 39910 ft 441 kts 224°
2026-05-06 20:40 51.43399 -119.66784 39902 ft 441 kts 224°
2026-05-06 20:40 51.38642 -119.73017 39896 ft 442 kts 224°
2026-05-06 20:41 51.33887 -119.79227 39893 ft 441 kts 224°
2026-05-06 20:41 51.29126 -119.85427 39897 ft 441 kts 224°
2026-05-06 20:42 51.24361 -119.91615 39907 ft 441 kts 224°
2026-05-06 20:42 51.19597 -119.97789 39908 ft 441 kts 225°
2026-05-06 20:43 51.14858 -120.03912 39903 ft 441 kts 224°
2026-05-06 20:43 51.10081 -120.10065 39897 ft 442 kts 224°
2026-05-06 20:44 51.05297 -120.16209 39901 ft 442 kts 224°
2026-05-06 20:44 51.00516 -120.22337 39894 ft 442 kts 225°
2026-05-06 20:45 50.95730 -120.28455 39894 ft 441 kts 225°
2026-05-06 20:45 50.90944 -120.34552 39885 ft 441 kts 225°
2026-05-06 20:46 50.86154 -120.40636 39875 ft 440 kts 225°
2026-05-06 20:46 50.81399 -120.46662 39881 ft 440 kts 225°
2026-05-06 20:47 50.76607 -120.52721 39864 ft 441 kts 225°
2026-05-06 20:47 50.71838 -120.58734 39875 ft 440 kts 225°
2026-05-06 20:48 50.67014 -120.64795 39879 ft 440 kts 225°
2026-05-06 20:48 50.62255 -120.70761 39889 ft 440 kts 225°
2026-05-06 20:49 50.57457 -120.76761 39882 ft 440 kts 225°
2026-05-06 20:49 50.52657 -120.82749 39893 ft 440 kts 225°
2026-05-06 20:50 50.47854 -120.88724 39894 ft 440 kts 225°
2026-05-06 20:50 50.43047 -120.94687 39897 ft 440 kts 225°
2026-05-06 20:51 50.38246 -121.00628 39902 ft 440 kts 225°
2026-05-06 20:51 50.33434 -121.06565 39912 ft 440 kts 225°
2026-05-06 20:52 50.28618 -121.12493 39928 ft 441 kts 225°
2026-05-06 20:52 50.23797 -121.18427 39316 ft 450 kts 226°
2026-05-06 20:52 50.21336 -121.21438 38753 ft 447 kts 226°
2026-05-06 20:53 50.18887 -121.24422 38080 ft 442 kts 226°
2026-05-06 20:53 50.16454 -121.27325 37346 ft 438 kts 225°
2026-05-06 20:53 50.14068 -121.30156 36706 ft 433 kts 225°
2026-05-06 20:53 50.11679 -121.32996 36081 ft 430 kts 226°
2026-05-06 20:54 50.09332 -121.35870 35495 ft 429 kts 226°
2026-05-06 20:54 50.06995 -121.38817 34891 ft 433 kts 227°
2026-05-06 20:54 50.04638 -121.41796 34315 ft 438 kts 226°
2026-05-06 20:54 50.02230 -121.44752 33679 ft 440 kts 226°
2026-05-06 20:55 49.99814 -121.47682 33016 ft 442 kts 226°
2026-05-06 20:55 49.97420 -121.50570 32367 ft 441 kts 225°
2026-05-06 20:55 49.94945 -121.53504 31738 ft 442 kts 224°
2026-05-06 20:55 49.92529 -121.56336 31157 ft 439 kts 225°
2026-05-06 20:56 49.90112 -121.59241 30566 ft 440 kts 225°
2026-05-06 20:56 49.87684 -121.62189 29965 ft 446 kts 225°
2026-05-06 20:56 49.85231 -121.65165 29293 ft 449 kts 224°
2026-05-06 20:56 49.82835 -121.68061 28621 ft 451 kts 224°
2026-05-06 20:57 49.80352 -121.71044 27958 ft 452 kts 224°
2026-05-06 20:57 49.77863 -121.74025 27332 ft 453 kts 224°
2026-05-06 20:57 49.75369 -121.77003 26720 ft 453 kts 223°
2026-05-06 20:57 49.72878 -121.79973 26103 ft 454 kts 223°
2026-05-06 20:58 49.70364 -121.82968 25507 ft 455 kts 223°
2026-05-06 20:58 49.67859 -121.85949 24921 ft 455 kts 223°
2026-05-06 20:58 49.65350 -121.88930 24296 ft 454 kts 223°
2026-05-06 20:58 49.62870 -121.91868 23636 ft 446 kts 223°
2026-05-06 20:59 49.60434 -121.94753 22893 ft 439 kts 222°
2026-05-06 20:59 49.58026 -121.97608 22168 ft 435 kts 222°
2026-05-06 20:59 49.55639 -122.00434 21464 ft 431 kts 222°
2026-05-06 20:59 49.53276 -122.03247 20750 ft 427 kts 224°
2026-05-06 21:00 49.51268 -122.06520 20053 ft 415 kts 239°
2026-05-06 21:00 49.49813 -122.10306 19415 ft 409 kts 243°
2026-05-06 21:00 49.48383 -122.14069 18768 ft 406 kts 242°
2026-05-06 21:00 49.46926 -122.17766 18071 ft 403 kts 241°
2026-05-06 21:01 49.45471 -122.21420 17343 ft 399 kts 241°
2026-05-06 21:01 49.44039 -122.25017 16614 ft 391 kts 241°
2026-05-06 21:01 49.42638 -122.28542 15916 ft 382 kts 241°
2026-05-06 21:01 49.41267 -122.31988 15228 ft 375 kts 241°
2026-05-06 21:02 49.39903 -122.35412 14552 ft 368 kts 241°
2026-05-06 21:02 49.38549 -122.38655 13895 ft 363 kts 239°
2026-05-06 21:02 49.37163 -122.41869 13154 ft 359 kts 239°
2026-05-06 21:02 49.35783 -122.45046 12454 ft 356 kts 239°
2026-05-06 21:03 49.34416 -122.48191 11735 ft 352 kts 238°
2026-05-06 21:03 49.33070 -122.51302 11147 ft 347 kts 239°
2026-05-06 21:03 49.31772 -122.54304 10986 ft 330 kts 239°
2026-05-06 21:03 49.30533 -122.57175 10786 ft 315 kts 239°
2026-05-06 21:04 49.29349 -122.59921 10620 ft 303 kts 239°
2026-05-06 21:04 49.28211 -122.62559 10437 ft 292 kts 239°
2026-05-06 21:04 49.27110 -122.65103 10263 ft 282 kts 239°
2026-05-06 21:04 49.26047 -122.67556 10088 ft 273 kts 239°
2026-05-06 21:05 49.25023 -122.69959 9903 ft 264 kts 243°
2026-05-06 21:05 49.24492 -122.72586 9702 ft 256 kts 264°
2026-05-06 21:05 49.24594 -122.75277 9532 ft 254 kts 279°
2026-05-06 21:05 49.24910 -122.77944 9357 ft 256 kts 280°
2026-05-06 21:06 49.25239 -122.80615 9178 ft 254 kts 280°
2026-05-06 21:06 49.25557 -122.83227 9048 ft 245 kts 279°
2026-05-06 21:06 49.25856 -122.85744 8997 ft 235 kts 279°
2026-05-06 21:06 49.26144 -122.88188 9004 ft 233 kts 279°
2026-05-06 21:07 49.26427 -122.90621 8997 ft 232 kts 279°
2026-05-06 21:07 49.26712 -122.93068 9000 ft 234 kts 279°
2026-05-06 21:07 49.26997 -122.95516 8913 ft 234 kts 279°
2026-05-06 21:07 49.27281 -122.97967 8646 ft 233 kts 279°
2026-05-06 21:08 49.27562 -123.00401 8395 ft 232 kts 279°
2026-05-06 21:08 49.27841 -123.02823 8146 ft 231 kts 279°
2026-05-06 21:08 49.28123 -123.05235 7893 ft 230 kts 279°
2026-05-06 21:08 49.28407 -123.07638 7651 ft 229 kts 280°
2026-05-06 21:09 49.28692 -123.10036 7404 ft 228 kts 280°
2026-05-06 21:09 49.28974 -123.12419 7167 ft 227 kts 280°
2026-05-06 21:09 49.29254 -123.14796 6926 ft 227 kts 280°
2026-05-06 21:09 49.29534 -123.17169 6683 ft 226 kts 280°
2026-05-06 21:10 49.29812 -123.19538 6433 ft 226 kts 280°
2026-05-06 21:10 49.30089 -123.21900 6168 ft 225 kts 279°
2026-05-06 21:10 49.30365 -123.24258 5917 ft 224 kts 280°
2026-05-06 21:10 49.30635 -123.26612 5667 ft 224 kts 279°
2026-05-06 21:11 49.30892 -123.28963 5475 ft 224 kts 279°
2026-05-06 21:11 49.31145 -123.31310 5272 ft 222 kts 279°
2026-05-06 21:11 49.31397 -123.33639 5071 ft 221 kts 279°
2026-05-06 21:11 49.31647 -123.35956 4872 ft 220 kts 279°
2026-05-06 21:12 49.31896 -123.38259 4654 ft 218 kts 279°
2026-05-06 21:12 49.32141 -123.40537 4444 ft 215 kts 279°
2026-05-06 21:12 49.32383 -123.42784 4239 ft 213 kts 279°
2026-05-06 21:12 49.32622 -123.45019 4023 ft 211 kts 279°
2026-05-06 21:13 49.32519 -123.47227 3797 ft 210 kts 248°
2026-05-06 21:13 49.31610 -123.48932 3603 ft 209 kts 212°
2026-05-06 21:13 49.30239 -123.49575 3413 ft 206 kts 187°
2026-05-06 21:13 49.28818 -123.49812 3208 ft 205 kts 186°
2026-05-06 21:14 49.27429 -123.50026 3079 ft 199 kts 186°
2026-05-06 21:14 49.26113 -123.49807 2990 ft 186 kts 153°
2026-05-06 21:14 49.25200 -123.48531 3007 ft 177 kts 127°
2026-05-06 21:14 49.24466 -123.47032 3008 ft 175 kts 126°
2026-05-06 21:15 49.23753 -123.45550 2993 ft 169 kts 126°
2026-05-06 21:15 49.23243 -123.43994 2979 ft 162 kts 95°
2026-05-06 21:15 49.23139 -123.42272 2930 ft 167 kts 102°
2026-05-06 21:15 49.22866 -123.40528 2750 ft 169 kts 101°
2026-05-06 21:16 49.22662 -123.38782 2512 ft 164 kts 100°
2026-05-06 21:16 49.22469 -123.37089 2288 ft 159 kts 100°
2026-05-06 21:16 49.22284 -123.35472 2080 ft 149 kts 100°
2026-05-06 21:16 49.22110 -123.33966 1906 ft 137 kts 101°
2026-05-06 21:17 49.21948 -123.32554 1710 ft 133 kts 101°
2026-05-06 21:17 49.21783 -123.31163 1516 ft 132 kts 103°
2026-05-06 21:17 49.21622 -123.29791 1357 ft 130 kts 100°
2026-05-06 21:17 49.21471 -123.28418 1159 ft 134 kts 102°
2026-05-06 21:18 49.21313 -123.27015 982 ft 134 kts 100°
2026-05-06 21:18 49.21151 -123.25609 799 ft 134 kts 101°
2026-05-06 21:18 49.20985 -123.24216 617 ft 131 kts 101°
2026-05-06 21:18 49.20825 -123.22834 417 ft 133 kts 99°
2026-05-06 21:19 49.20675 -123.21485 255 ft 129 kts 99°
2026-05-06 21:19 49.20522 -123.20128 93 ft 126 kts 100°
2026-05-06 21:19 49.20378 -123.18869 24 ft 111 kts 99°
2026-05-06 21:19 49.20272 -123.17933 24 ft 68 kts 100°
2026-05-06 21:20 49.20217 -123.17450 21 ft 26 kts 99°
2026-05-06 21:20 49.20197 -123.17275 22 ft 25 kts 101°
2026-05-06 21:20 49.20160 -123.16948 21 ft 23 kts 100°
2026-05-06 21:20 49.20133 -123.16713 21 ft 22 kts 99°
2026-05-06 21:21 49.20107 -123.16486 21 ft 21 kts 100°
2026-05-06 21:21 49.20082 -123.16265 23 ft 21 kts 99°
2026-05-06 21:21 49.20057 -123.16177 23 ft 5 kts 159°
2026-05-06 21:21 49.20014 -123.16180 27 ft 9 kts 188°
2026-05-06 21:22 49.19939 -123.16194 26 ft 12 kts 187°
2026-05-06 21:22 49.19881 -123.16207 25 ft 1 kts 199°
2026-05-06 21:22 49.19873 -123.16215 25 ft 2 kts 213°
2026-05-06 21:22 49.19868 -123.16225 25 ft 2 kts 237°
2026-05-06 21:23 49.19874 -123.16297 26 ft 15 kts 278°
2026-05-06 21:23 49.19888 -123.16433 22 ft 21 kts 281°
2026-05-06 21:23 49.19914 -123.16652 21 ft 1 kts 280°
2026-05-06 21:23 49.19925 -123.16756 21 ft 15 kts 278°
2026-05-06 21:24 49.19941 -123.16926 20 ft 16 kts 279°
2026-05-06 21:24 49.19953 -123.17027 20 ft 4 kts 279°
2026-05-06 21:24 49.19956 -123.17060 20 ft 5 kts 279°
2026-05-06 21:24 49.19946 -123.17108 21 ft 5 kts 222°
2026-05-06 21:25 49.19913 -123.17127 21 ft 6 kts 194°
2026-05-06 21:25 49.19867 -123.17130 21 ft 7 kts 167°
2026-05-06 21:25 49.19817 -123.17110 21 ft 7 kts 173°
2026-05-06 21:25 49.19765 -123.17110 22 ft 8 kts 182°
2026-05-06 21:26 49.19713 -123.17114 23 ft 7 kts 182°
2026-05-06 21:26 49.19694 -123.17115 22 ft 2 kts 182°
2026-05-06 21:26 49.19681 -123.17116 22 ft 2 kts 179°
2026-05-06 21:26 49.19654 -123.17104 25 ft 7 kts 153°
2026-05-06 21:27 49.19622 -123.17042 23 ft 8 kts 115°
2026-05-06 21:27 49.19607 -123.16958 24 ft 9 kts 102°
2026-05-06 21:27 49.19594 -123.16865 26 ft 9 kts 101°
2026-05-06 21:27 49.19584 -123.16771 23 ft 9 kts 97°
2026-05-06 21:28 49.19577 -123.16694 23 ft 5 kts 98°
2026-05-06 21:28 49.19554 -123.16665 24 ft 4 kts 165°
2026-05-06 21:28 49.19532 -123.16665 24 ft 3 kts 182°
2026-05-06 21:28 49.19524 -123.16666 25 ft 1 kts 186°
2026-05-06 21:29 49.19523 -123.16666 25 ft 0 kts 186°